QPF
0.00 0.00 0.00 0.00 0.00 0.00 0.00 0.00 0.00 0.00 0.00 0.00 0.00 0.00 0.00 0.00 0.00 0.00 0.00 0.00 0.00 0.00 0.00 0.00 0.00 0.00 0.00 0.00 0.00 0.00 0.00 0.00 0.00 0.00 0.00 0.00 0.00 0.00 0.00 0.00 0.00 0.00 0.00 0.00
0.00 0.00 0.00 0.00 0.00 0.00 0.00 0.00 0.00 0.00 0.00 0.00 0.00 0.00 0.00 0.00 0.00 0.00 0.00 0.00 0.00 0.00 0.00 0.00 0.00 0.00 0.00 0.00 0.00 0.00 0.00 0.00 0.00 0.00 0.00 0.00 0.00 0.00 0.00 0.00 0.00 0.00 0.00 0.00
0.00 0.00 0.00 0.00 0.00 0.00 0.00 0.00 0.00 0.00 0.00 0.00 0.00 0.00 0.00 0.00 0.00 0.00 0.00 0.00 0.00 0.00 0.00 0.00 0.00 0.00 0.00 0.00 0.00 0.00 0.00 0.00 0.00 0.00 0.00 0.00 0.00 0.00 0.00 0.00 0.00 0.00 0.00 0.00
0.00 0.00 0.00 0.00 0.00 0.00 0.00 0.00 0.00 0.00 0.00 0.00 0.00 0.00 0.00 0.00 0.00 0.00 0.00 0.00 0.00 0.00 0.00 0.00 0.00 0.00 0.00 0.00 0.00 0.00 0.00 0.00 0.00 0.00 0.00 0.00 0.00 0.00 0.00 0.00 0.00 0.00 0.00 0.00
0.00 0.00 0.00 0.00 0.00 0.00 0.00 0.00 0.00 0.00 0.00 0.00 0.00 0.00 0.00 0.00 0.00 0.00 0.00 0.00 0.00 0.00 0.00 0.00 0.00 0.00 0.00 0.00 0.00 0.00 0.00 0.00 0.00 0.00 0.00 0.00 0.00 0.00 0.00 0.00 0.00 0.00 0.00 0.00
0.00 0.00 0.00 0.00 0.00 0.00 0.00 0.00 0.00 0.00 0.00 0.00 0.00 0.00 0.00 0.00 0.00 0.00 0.00 0.00 0.00 0.00 0.00 0.00 0.00 0.00 0.00 0.00 0.00 0.00 0.00 0.00 0.00 0.00 0.00 0.00 0.00 0.00 0.00 0.00 0.00 0.00 0.00 0.00
0.00 0.00 0.00 0.00 0.00 0.00 0.00 0.00 0.00 0.00 0.00 0.00 0.00 0.00 0.00 0.00 0.00 0.00 0.00 0.00 0.00 0.00 0.00 0.00 0.00 0.00 0.00 0.00 0.00 0.00 0.00 0.00 0.00 0.00 0.00 0.00 0.00 0.00 0.00 0.00 0.00 0.00 0.00 0.00
0.00 0.00 0.00 0.00 0.00 0.00 0.00 0.00 0.00 0.00 0.00 0.00 0.00 0.00 0.00 0.00 0.00 0.00 0.00 0.00 0.00 0.00 0.00 0.00 0.00 0.00 0.00 0.00 0.00 0.00 0.00 0.00 0.00 0.00 0.00 0.00 0.00 0.00 0.00 0.00 0.00 0.01 0.01 0.01
0.00 0.00 0.00 0.00 0.00 0.00 0.00 0.00 0.00 0.00 0.00 0.00 0.00 0.00 0.00 0.00 0.00 0.00 0.00 0.00 0.00 0.00 0.00 0.00 0.00 0.00 0.00 0.00 0.00 0.00 0.00 0.00 0.00 0.00 0.00 0.00 0.00 0.00 0.00 0.01 0.01 0.02 0.02 0.02
0.00 0.00 0.00 0.00 0.00 0.00 0.00 0.00 0.00 0.00 0.00 0.00 0.00 0.00 0.00 0.00 0.00 0.00 0.00 0.00 0.00 0.00 0.00 0.00 0.00 0.00 0.00 0.00 0.00 0.00 0.00 0.00 0.00 0.00 0.00 0.00 0.00 0.00 0.01 0.02 0.05 0.03 0.02 0.02
0.00 0.00 0.00 0.00 0.00 0.00 0.00 0.00 0.00 0.00 0.00 0.00 0.00 0.00 0.00 0.00 0.00 0.00 0.00 0.00 0.00 0.00 0.00 0.00 0.00 0.00 0.00 0.00 0.00 0.00 0.00 0.00 0.00 0.00 0.00 0.00 0.00 0.00 0.01 0.03 0.06 0.04 0.02 0.03
0.00 0.00 0.00 0.00 0.00 0.00 0.00 0.00 0.00 0.00 0.00 0.00 0.00 0.00 0.00 0.00 0.00 0.00 0.00 0.00 0.00 0.00 0.00 0.00 0.00 0.00 0.00 0.00 0.00 0.00 0.00 0.00 0.00 0.00 0.00 0.00 0.00 0.00 0.01 0.02 0.03 0.02 0.02 0.04
0.00 0.00 0.00 0.00 0.00 0.00 0.00 0.00 0.00 0.00 0.00 0.00 0.00 0.00 0.00 0.00 0.00 0.00 0.00 0.00 0.00 0.00 0.00 0.00 0.00 0.00 0.00 0.00 0.00 0.00 0.00 0.00 0.00 0.00 0.00 0.00 0.00 0.00 0.00 0.01 0.01 0.01 0.01 0.02
0.00 0.00 0.00 0.00 0.00 0.00 0.00 0.00 0.00 0.00 0.00 0.00 0.00 0.00 0.00 0.00 0.00 0.00 0.00 0.00 0.00 0.00 0.00 0.00 0.00 0.00 0.00 0.00 0.00 0.00 0.00 0.00 0.00 0.00 0.00 0.00 0.00 0.00 0.00 0.01 0.01 0.00 0.00 0.00
0.00 0.00 0.00 0.00 0.00 0.00 0.00 0.00 0.00 0.00 0.00 0.00 0.00 0.00 0.00 0.00 0.00 0.00 0.00 0.00 0.00 0.00 0.00 0.00 0.00 0.00 0.00 0.00 0.00 0.00 0.00 0.00 0.00 0.00 0.00 0.00 0.00 0.00 0.00 0.00 0.00 0.00 0.00 0.00
0.00 0.00 0.00 0.00 0.00 0.00 0.00 0.00 0.00 0.00 0.00 0.00 0.00 0.00 0.00 0.00 0.00 0.00 0.00 0.00 0.00 0.00 0.00 0.00 0.00 0.00 0.00 0.00 0.00 0.00 0.00 0.00 0.00 0.00 0.00 0.00 0.00 0.00 0.00 0.00 0.00 0.00 0.00 0.00
0.00 0.00 0.00 0.00 0.00 0.00 0.00 0.00 0.00 0.00 0.00 0.00 0.00 0.00 0.00 0.00 0.00 0.00 0.00 0.00 0.00 0.00 0.00 0.00 0.00 0.00 0.00 0.00 0.00 0.00 0.00 0.00 0.00 0.00 0.00 0.00 0.00 0.00 0.00 0.00 0.00 0.00 0.00 0.00
0.00 0.00 0.00 0.00 0.00 0.00 0.00 0.00 0.00 0.00 0.00 0.00 0.00 0.00 0.00 0.00 0.00 0.00 0.00 0.00 0.00 0.00 0.00 0.00 0.00 0.00 0.00 0.00 0.00 0.00 0.00 0.00 0.00 0.00 0.00 0.00 0.00 0.00 0.00 0.00 0.00 0.00 0.00 0.00
0.00 0.00 0.00 0.00 0.00 0.00 0.00 0.00 0.00 0.00 0.00 0.00 0.00 0.00 0.00 0.00 0.00 0.00 0.00 0.00 0.00 0.00 0.00 0.00 0.00 0.00 0.00 0.00 0.00 0.00 0.00 0.00 0.00 0.00 0.00 0.00 0.00 0.00 0.00 0.00 0.00 0.00 0.00 0.00
0.00 0.00 0.00 0.00 0.00 0.00 0.00 0.00 0.00 0.00 0.00 0.00 0.00 0.00 0.00 0.00 0.00 0.00 0.00 0.00 0.00 0.00 0.00 0.00 0.00 0.00 0.00 0.00 0.00 0.00 0.00 0.00 0.00 0.00 0.00 0.00 0.00 0.00 0.00 0.00 0.01 0.01 0.01 0.01
0.00 0.00 0.00 0.00 0.00 0.00 0.00 0.00 0.00 0.00 0.00 0.00 0.00 0.00 0.00 0.00 0.00 0.00 0.00 0.00 0.00 0.00 0.00 0.00 0.00 0.00 0.00 0.00 0.00 0.00 0.00 0.00 0.00 0.00 0.00 0.00 0.00 0.00 0.00 0.01 0.01 0.02 0.02 0.02
0.00 0.00 0.00 0.00 0.00 0.00 0.00 0.00 0.00 0.00 0.00 0.00 0.00 0.00 0.00 0.00 0.00 0.00 0.00 0.00 0.00 0.00 0.00 0.00 0.00 0.00 0.00 0.00 0.00 0.00 0.00 0.00 0.00 0.00 0.00 0.00 0.01 0.01 0.01 0.02 0.02 0.03 0.03 0.03
0.00 0.00 0.00 0.00 0.00 0.00 0.00 0.00 0.00 0.00 0.00 0.00 0.00 0.00 0.00 0.00 0.00 0.00 0.00 0.00 0.00 0.00 0.00 0.00 0.00 0.00 0.00 0.00 0.00 0.00 0.00 0.00 0.00 0.00 0.00 0.00 0.01 0.01 0.01 0.02 0.02 0.03 0.04 0.05
0.00 0.00 0.00 0.00 0.00 0.00 0.00 0.00 0.00 0.00 0.00 0.00 0.00 0.00 0.00 0.00 0.00 0.00 0.00 0.00 0.00 0.00 0.00 0.00 0.00 0.00 0.00 0.00 0.00 0.00 0.00 0.00 0.00 0.00 0.00 0.00 0.00 0.00 0.01 0.02 0.02 0.02 0.03 0.04
0.00 0.00 0.00 0.00 0.00 0.00 0.00 0.00 0.00 0.00 0.00 0.00 0.00 0.00 0.00 0.00 0.00 0.00 0.00 0.00 0.00 0.00 0.00 0.00 0.00 0.00 0.00 0.00 0.00 0.00 0.00 0.00 0.00 0.00 0.00 0.00 0.00 0.00 0.01 0.01 0.02 0.02 0.03 0.04
0.00 0.00 0.00 0.00 0.00 0.00 0.00 0.00 0.00 0.00 0.00 0.00 0.00 0.00 0.00 0.00 0.00 0.00 0.00 0.00 0.00 0.00 0.00 0.00 0.00 0.00 0.00 0.00 0.00 0.00 0.00 0.00 0.00 0.00 0.00 0.00 0.00 0.00 0.01 0.01 0.01 0.01 0.02 0.02
0.00 0.00 0.00 0.00 0.00 0.00 0.00 0.00 0.00 0.00 0.00 0.00 0.00 0.00 0.00 0.00 0.00 0.00 0.00 0.00 0.00 0.00 0.00 0.00 0.00 0.00 0.00 0.00 0.00 0.00 0.00 0.00 0.00 0.00 0.00 0.00 0.00 0.00 0.01 0.01 0.01 0.01 0.01 0.02
MSLP
1028.19 1027.92 1027.65 1027.40 1027.20 1027.08 1027.06 1027.15 1027.36 1027.69 1028.16 1028.76 1029.48 1030.31 1031.22 1032.17 1033.11 1034.00 1034.78 1035.40 1035.85 1036.11 1036.19 1036.12 1035.92 1035.63 1035.30 1034.93 1034.56 1034.19 1033.80 1033.40 1032.95 1032.45 1031.89 1031.26 1030.58 1029.84 1029.07 1028.26 1027.42 1026.54 1025.63 1024.68
1028.49 1028.14 1027.75 1027.38 1027.06 1026.82 1026.71 1026.73 1026.92 1027.27 1027.80 1028.50 1029.36 1030.33 1031.38 1032.45 1033.50 1034.45 1035.26 1035.90 1036.32 1036.53 1036.55 1036.40 1036.12 1035.75 1035.34 1034.90 1034.47 1034.06 1033.64 1033.22 1032.78 1032.30 1031.76 1031.16 1030.50 1029.77 1028.99 1028.16 1027.28 1026.36 1025.41 1024.42
1028.77 1028.35 1027.88 1027.40 1026.98 1026.65 1026.46 1026.44 1026.62 1027.01 1027.60 1028.39 1029.36 1030.44 1031.60 1032.77 1033.88 1034.88 1035.72 1036.34 1036.74 1036.90 1036.86 1036.65 1036.29 1035.85 1035.36 1034.86 1034.37 1033.90 1033.46 1033.02 1032.58 1032.11 1031.60 1031.03 1030.40 1029.70 1028.93 1028.10 1027.21 1026.26 1025.28 1024.28
1028.95 1028.48 1027.95 1027.42 1026.94 1026.57 1026.35 1026.33 1026.53 1026.97 1027.63 1028.50 1029.54 1030.71 1031.93 1033.14 1034.29 1035.29 1036.12 1036.72 1037.07 1037.20 1037.11 1036.84 1036.43 1035.93 1035.38 1034.81 1034.27 1033.75 1033.27 1032.81 1032.36 1031.90 1031.41 1030.88 1030.29 1029.62 1028.88 1028.07 1027.18 1026.25 1025.27 1024.27
1028.92 1028.43 1027.90 1027.36 1026.89 1026.54 1026.36 1026.40 1026.66 1027.17 1027.91 1028.84 1029.94 1031.14 1032.38 1033.59 1034.71 1035.68 1036.46 1037.01 1037.32 1037.40 1037.27 1036.97 1036.52 1035.98 1035.39 1034.79 1034.19 1033.63 1033.11 1032.62 1032.15 1031.69 1031.22 1030.71 1030.15 1029.53 1028.83 1028.05 1027.21 1026.30 1025.35 1024.39
1028.62 1028.15 1027.65 1027.17 1026.78 1026.53 1026.46 1026.61 1026.99 1027.60 1028.42 1029.41 1030.54 1031.74 1032.94 1034.09 1035.14 1036.03 1036.73 1037.22 1037.47 1037.52 1037.36 1037.04 1036.58 1036.03 1035.42 1034.79 1034.16 1033.56 1032.99 1032.46 1031.97 1031.50 1031.02 1030.53 1030.01 1029.43 1028.78 1028.06 1027.27 1026.42 1025.53 1024.62
1028.04 1027.62 1027.20 1026.84 1026.58 1026.49 1026.60 1026.91 1027.45 1028.19 1029.10 1030.15 1031.29 1032.45 1033.58 1034.64 1035.57 1036.35 1036.95 1037.34 1037.54 1037.55 1037.38 1037.06 1036.62 1036.08 1035.47 1034.83 1034.19 1033.55 1032.95 1032.38 1031.85 1031.35 1030.87 1030.39 1029.89 1029.34 1028.75 1028.09 1027.37 1026.59 1025.78 1024.95
1027.23 1026.89 1026.58 1026.38 1026.31 1026.43 1026.75 1027.28 1027.99 1028.88 1029.90 1030.99 1032.12 1033.22 1034.26 1035.19 1035.98 1036.63 1037.10 1037.41 1037.54 1037.52 1037.35 1037.05 1036.63 1036.13 1035.55 1034.92 1034.27 1033.62 1032.99 1032.38 1031.82 1031.29 1030.79 1030.30 1029.82 1029.31 1028.77 1028.18 1027.53 1026.84 1026.11 1025.37
1026.30 1026.04 1025.88 1025.86 1026.01 1026.36 1026.92 1027.67 1028.58 1029.62 1030.73 1031.86 1032.97 1034.00 1034.92 1035.72 1036.37 1036.87 1037.22 1037.43 1037.51 1037.46 1037.30 1037.02 1036.65 1036.19 1035.66 1035.06 1034.42 1033.77 1033.12 1032.48 1031.89 1031.33 1030.81 1030.32 1029.84 1029.36 1028.86 1028.33 1027.76 1027.15 1026.51 1025.86
1025.35 1025.20 1025.20 1025.37 1025.75 1026.34 1027.14 1028.10 1029.19 1030.36 1031.55 1032.71 1033.78 1034.73 1035.54 1036.20 1036.70 1037.07 1037.31 1037.43 1037.46 1037.39 1037.24 1037.00 1036.68 1036.27 1035.79 1035.23 1034.62 1033.98 1033.32 1032.67 1032.05 1031.47 1030.94 1030.44 1029.97 1029.52 1029.06 1028.58 1028.06 1027.52 1026.96 1026.39
1024.50 1024.47 1024.63 1025.00 1025.60 1026.41 1027.42 1028.57 1029.81 1031.08 1032.33 1033.49 1034.51 1035.38 1036.08 1036.62 1037.00 1037.25 1037.39 1037.44 1037.43 1037.35 1037.21 1037.00 1036.73 1036.37 1035.94 1035.42 1034.84 1034.22 1033.57 1032.92 1032.29 1031.70 1031.16 1030.66 1030.20 1029.77 1029.33 1028.89 1028.43 1027.94 1027.43 1026.92
1023.82 1023.93 1024.25 1024.81 1025.60 1026.61 1027.78 1029.08 1030.42 1031.76 1033.02 1034.16 1035.13 1035.92 1036.53 1036.96 1037.24 1037.40 1037.47 1037.47 1037.42 1037.34 1037.21 1037.03 1036.78 1036.47 1036.08 1035.60 1035.05 1034.45 1033.82 1033.18 1032.56 1031.98 1031.44 1030.95 1030.50 1030.08 1029.66 1029.25 1028.81 1028.35 1027.88 1027.40
1023.30 1023.57 1024.07 1024.81 1025.77 1026.93 1028.23 1029.61 1031.01 1032.36 1033.62 1034.71 1035.63 1036.34 1036.87 1037.23 1037.44 1037.54 1037.56 1037.53 1037.46 1037.36 1037.24 1037.07 1036.84 1036.55 1036.18 1035.73 1035.21 1034.63 1034.03 1033.41 1032.81 1032.24 1031.72 1031.24 1030.80 1030.39 1029.99 1029.58 1029.16 1028.72 1028.26 1027.79
1022.91 1023.35 1024.03 1024.94 1026.05 1027.32 1028.70 1030.13 1031.54 1032.87 1034.08 1035.13 1035.98 1036.63 1037.10 1037.41 1037.58 1037.65 1037.64 1037.59 1037.51 1037.41 1037.28 1037.10 1036.88 1036.59 1036.22 1035.79 1035.28 1034.73 1034.15 1033.56 1032.98 1032.44 1031.94 1031.48 1031.05 1030.65 1030.26 1029.85 1029.43 1028.98 1028.52 1028.05
1022.59 1023.22 1024.07 1025.14 1026.37 1027.73 1029.15 1030.58 1031.96 1033.25 1034.39 1035.37 1036.16 1036.77 1037.20 1037.48 1037.64 1037.71 1037.70 1037.65 1037.57 1037.45 1037.30 1037.11 1036.87 1036.57 1036.19 1035.75 1035.26 1034.72 1034.16 1033.60 1033.05 1032.54 1032.06 1031.62 1031.21 1030.82 1030.42 1030.01 1029.57 1029.12 1028.64 1028.15
1022.28 1023.10 1024.13 1025.33 1026.66 1028.07 1029.50 1030.90 1032.23 1033.45 1034.52 1035.44 1036.18 1036.75 1037.17 1037.45 1037.62 1037.70 1037.71 1037.67 1037.59 1037.47 1037.30 1037.08 1036.81 1036.48 1036.08 1035.63 1035.14 1034.61 1034.07 1033.54 1033.02 1032.54 1032.09 1031.67 1031.26 1030.87 1030.46 1030.04 1029.59 1029.11 1028.61 1028.11
1021.95 1022.95 1024.14 1025.46 1026.86 1028.30 1029.71 1031.06 1032.32 1033.46 1034.46 1035.32 1036.02 1036.57 1036.99 1037.30 1037.50 1037.61 1037.66 1037.64 1037.56 1037.42 1037.24 1036.99 1036.69 1036.32 1035.91 1035.45 1034.95 1034.44 1033.92 1033.41 1032.93 1032.47 1032.04 1031.63 1031.24 1030.83 1030.42 1029.97 1029.50 1028.99 1028.47 1027.95
1021.62 1022.78 1024.10 1025.51 1026.96 1028.39 1029.76 1031.05 1032.23 1033.29 1034.22 1035.02 1035.69 1036.24 1036.68 1037.02 1037.27 1037.43 1037.51 1037.52 1037.45 1037.31 1037.11 1036.84 1036.51 1036.13 1035.70 1035.23 1034.74 1034.25 1033.76 1033.28 1032.82 1032.39 1031.98 1031.58 1031.17 1030.75 1030.31 1029.84 1029.34 1028.81 1028.26 1027.70
1021.34 1022.63 1024.05 1025.50 1026.96 1028.35 1029.66 1030.87 1031.97 1032.95 1033.81 1034.58 1035.23 1035.79 1036.26 1036.65 1036.94 1037.15 1037.28 1037.31 1037.26 1037.13 1036.92 1036.64 1036.30 1035.90 1035.48 1035.02 1034.56 1034.09 1033.64 1033.20 1032.77 1032.36 1031.96 1031.55 1031.14 1030.69 1030.22 1029.71 1029.17 1028.60 1028.02 1027.44
1021.17 1022.56 1024.02 1025.49 1026.91 1028.24 1029.47 1030.59 1031.60 1032.50 1033.31 1034.04 1034.69 1035.27 1035.77 1036.20 1036.54 1036.80 1036.97 1037.03 1037.00 1036.88 1036.68 1036.40 1036.06 1035.69 1035.28 1034.86 1034.43 1034.02 1033.61 1033.21 1032.82 1032.43 1032.04 1031.62 1031.18 1030.71 1030.19 1029.64 1029.05 1028.44 1027.81 1027.19
1021.16 1022.60 1024.07 1025.50 1026.85 1028.10 1029.23 1030.25 1031.17 1032.01 1032.77 1033.47 1034.12 1034.71 1035.25 1035.72 1036.11 1036.41 1036.61 1036.70 1036.69 1036.59 1036.40 1036.14 1035.83 1035.49 1035.12 1034.75 1034.39 1034.03 1033.68 1033.34 1032.98 1032.62 1032.23 1031.80 1031.33 1030.82 1030.26 1029.65 1029.01 1028.35 1027.68 1027.01
1021.33 1022.77 1024.19 1025.56 1026.81 1027.96 1028.98 1029.90 1030.74 1031.51 1032.23 1032.91 1033.56 1034.17 1034.74 1035.24 1035.66 1035.99 1036.22 1036.34 1036.35 1036.27 1036.10 1035.87 1035.60 1035.31 1035.01 1034.71 1034.42 1034.13 1033.85 1033.56 1033.25 1032.91 1032.52 1032.08 1031.59 1031.03 1030.42 1029.77 1029.07 1028.35 1027.63 1026.90
1021.61 1023.02 1024.38 1025.64 1026.78 1027.81 1028.72 1029.55 1030.31 1031.03 1031.72 1032.39 1033.04 1033.67 1034.26 1034.79 1035.23 1035.58 1035.83 1035.97 1035.99 1035.93 1035.80 1035.61 1035.39 1035.15 1034.92 1034.70 1034.49 1034.28 1034.07 1033.83 1033.57 1033.25 1032.88 1032.43 1031.91 1031.32 1030.66 1029.96 1029.22 1028.45 1027.67 1026.89
1021.93 1023.27 1024.53 1025.68 1026.71 1027.62 1028.44 1029.18 1029.88 1030.56 1031.23 1031.90 1032.56 1033.21 1033.81 1034.36 1034.82 1035.19 1035.45 1035.59 1035.64 1035.59 1035.49 1035.34 1035.17 1035.00 1034.84 1034.69 1034.56 1034.43 1034.29 1034.11 1033.89 1033.60 1033.23 1032.78 1032.25 1031.63 1030.94 1030.20 1029.42 1028.61 1027.78 1026.96
1022.16 1023.42 1024.57 1025.61 1026.52 1027.33 1028.07 1028.75 1029.41 1030.07 1030.74 1031.42 1032.10 1032.76 1033.38 1033.94 1034.42 1034.79 1035.05 1035.21 1035.27 1035.25 1035.17 1035.06 1034.94 1034.83 1034.74 1034.66 1034.60 1034.54 1034.46 1034.33 1034.15 1033.89 1033.54 1033.09 1032.54 1031.92 1031.22 1030.45 1029.65 1028.81 1027.96 1027.10
1022.19 1023.35 1024.39 1025.32 1026.14 1026.87 1027.55 1028.20 1028.85 1029.51 1030.19 1030.89 1031.60 1032.28 1032.92 1033.50 1033.98 1034.36 1034.63 1034.80 1034.87 1034.87 1034.83 1034.76 1034.69 1034.63 1034.60 1034.58 1034.58 1034.58 1034.54 1034.46 1034.31 1034.07 1033.73 1033.29 1032.76 1032.13 1031.43 1030.67 1029.86 1029.02 1028.16 1027.29
1021.93 1022.98 1023.92 1024.76 1025.50 1026.19 1026.84 1027.48 1028.14 1028.83 1029.54 1030.27 1031.01 1031.72 1032.38 1032.97 1033.47 1033.87 1034.15 1034.33 1034.43 1034.46 1034.45 1034.42 1034.40 1034.39 1034.40 1034.44 1034.48 1034.52 1034.52 1034.46 1034.34 1034.12 1033.80 1033.37 1032.85 1032.24 1031.56 1030.81 1030.03 1029.20 1028.36 1027.49
Thickness
5625 5623 5614 5603 5597 5591 5576 5567 5558 5560 5549 5530 5504 5492 5472 5449 5426 5404 5382 5362 5342 5325 5312 5300 5287 5275 5263 5251 5240 5230 5221 5213 5203 5192 5181 5171 5161 5151 5142 5131 5121 5114 5111 5114
5620 5623 5608 5599 5596 5588 5580 5572 5562 5553 5541 5517 5507 5488 5465 5441 5418 5395 5374 5354 5335 5319 5307 5295 5283 5271 5260 5248 5238 5229 5220 5211 5201 5190 5178 5166 5154 5143 5130 5117 5105 5097 5095 5100
5606 5621 5611 5600 5607 5592 5583 5576 5564 5549 5537 5517 5501 5482 5459 5433 5408 5386 5364 5345 5327 5313 5301 5289 5279 5268 5256 5246 5236 5228 5219 5209 5198 5187 5174 5162 5149 5135 5120 5104 5092 5085 5085 5092
5596 5594 5588 5613 5596 5595 5586 5578 5566 5552 5536 5516 5494 5473 5446 5419 5397 5377 5356 5337 5321 5308 5297 5287 5277 5265 5254 5244 5235 5227 5218 5208 5197 5185 5173 5160 5145 5129 5112 5096 5084 5079 5081 5088
5582 5577 5588 5600 5591 5582 5574 5567 5562 5546 5530 5508 5487 5465 5428 5411 5392 5371 5352 5334 5319 5306 5296 5286 5275 5264 5253 5244 5235 5226 5217 5207 5196 5185 5172 5158 5142 5126 5109 5094 5083 5079 5081 5086
5576 5566 5575 5603 5585 5577 5565 5548 5552 5537 5519 5499 5478 5450 5427 5403 5387 5367 5350 5333 5318 5305 5294 5283 5273 5263 5253 5244 5235 5225 5216 5206 5196 5184 5171 5156 5141 5126 5109 5094 5084 5080 5082 5086
5573 5565 5584 5589 5575 5562 5547 5556 5540 5528 5509 5488 5468 5443 5418 5401 5383 5365 5348 5331 5316 5303 5291 5281 5273 5262 5252 5243 5233 5223 5214 5205 5196 5185 5171 5159 5144 5128 5112 5097 5087 5082 5082 5086
5582 5569 5581 5578 5562 5553 5553 5546 5535 5517 5499 5479 5459 5436 5417 5397 5379 5361 5344 5328 5312 5299 5289 5281 5272 5261 5251 5242 5233 5224 5215 5206 5197 5186 5175 5163 5149 5134 5119 5104 5092 5085 5083 5085
5606 5602 5601 5583 5572 5565 5551 5540 5525 5505 5487 5468 5450 5431 5412 5392 5375 5358 5341 5324 5309 5296 5287 5280 5271 5261 5250 5242 5235 5226 5216 5208 5199 5189 5179 5167 5155 5141 5127 5112 5099 5089 5085 5085
5606 5610 5598 5584 5574 5558 5549 5533 5516 5496 5477 5459 5441 5422 5403 5386 5369 5353 5337 5321 5307 5295 5285 5278 5269 5260 5251 5243 5235 5226 5217 5211 5202 5193 5183 5171 5160 5148 5134 5121 5108 5096 5089 5087
5605 5611 5598 5583 5568 5552 5537 5520 5502 5484 5468 5451 5433 5413 5395 5379 5366 5350 5335 5319 5306 5294 5284 5276 5268 5260 5253 5244 5236 5227 5220 5213 5204 5195 5185 5174 5163 5152 5141 5128 5118 5107 5098 5092
5615 5618 5597 5582 5567 5549 5528 5510 5492 5476 5459 5444 5427 5409 5392 5378 5364 5348 5332 5318 5304 5292 5283 5275 5268 5261 5253 5245 5237 5229 5223 5216 5207 5198 5189 5180 5169 5158 5147 5139 5130 5120 5112 5103
5625 5614 5599 5583 5563 5544 5524 5503 5487 5472 5455 5437 5421 5406 5392 5377 5362 5347 5331 5316 5302 5291 5282 5275 5268 5261 5254 5246 5239 5232 5225 5218 5209 5201 5193 5185 5177 5166 5156 5147 5139 5130 5123 5115
5612 5597 5581 5571 5553 5536 5516 5496 5480 5464 5448 5432 5418 5404 5389 5374 5359 5344 5329 5314 5303 5292 5283 5275 5267 5261 5254 5248 5241 5235 5228 5222 5214 5205 5197 5190 5181 5172 5163 5155 5147 5138 5131 5125
5606 5596 5577 5564 5545 5524 5505 5488 5471 5455 5441 5428 5413 5397 5382 5368 5354 5341 5328 5316 5305 5294 5284 5274 5267 5261 5256 5250 5244 5239 5233 5227 5219 5211 5203 5196 5188 5180 5171 5163 5156 5148 5140 5134
5600 5588 5571 5553 5535 5515 5498 5483 5468 5453 5439 5424 5407 5393 5379 5366 5352 5340 5329 5318 5305 5293 5283 5275 5268 5263 5258 5252 5247 5241 5235 5230 5225 5217 5210 5203 5196 5188 5180 5172 5165 5158 5151 5146
5591 5577 5561 5546 5530 5513 5499 5486 5472 5455 5438 5421 5405 5391 5377 5364 5352 5341 5331 5317 5305 5294 5285 5277 5270 5265 5260 5255 5250 5244 5238 5232 5228 5221 5215 5209 5203 5195 5188 5182 5175 5168 5162 5158
5602 5588 5574 5557 5537 5516 5499 5485 5470 5453 5437 5420 5404 5389 5377 5365 5355 5342 5329 5317 5306 5297 5289 5279 5272 5268 5263 5258 5253 5247 5241 5235 5230 5225 5220 5215 5211 5204 5197 5191 5185 5179 5174 5169
5594 5580 5566 5551 5534 5518 5501 5484 5468 5450 5433 5418 5403 5390 5378 5366 5353 5340 5328 5316 5306 5298 5290 5281 5276 5270 5264 5260 5255 5250 5243 5238 5233 5228 5224 5221 5216 5211 5206 5200 5195 5190 5185 5180
5586 5573 5560 5543 5527 5512 5496 5480 5462 5445 5430 5416 5403 5389 5376 5362 5349 5337 5326 5316 5308 5299 5290 5283 5277 5271 5265 5261 5257 5252 5246 5240 5235 5231 5228 5225 5221 5217 5212 5208 5205 5200 5195 5190
5577 5564 5551 5536 5520 5505 5491 5475 5458 5442 5427 5415 5403 5389 5375 5361 5347 5336 5325 5318 5309 5300 5292 5286 5279 5272 5267 5263 5258 5253 5248 5242 5237 5233 5230 5227 5224 5220 5216 5213 5210 5207 5204 5200
5570 5557 5543 5529 5514 5498 5482 5467 5454 5439 5425 5413 5401 5387 5373 5359 5346 5335 5326 5318 5309 5301 5294 5287 5280 5274 5269 5264 5258 5253 5249 5244 5238 5235 5231 5228 5225 5221 5218 5215 5213 5210 5207 5205
5563 5550 5536 5522 5508 5491 5474 5461 5449 5436 5423 5412 5400 5387 5374 5361 5349 5338 5330 5320 5310 5302 5295 5287 5281 5275 5270 5264 5258 5253 5249 5244 5239 5235 5232 5228 5225 5222 5219 5217 5215 5212 5210 5209
5555 5542 5528 5513 5497 5481 5467 5455 5443 5432 5420 5408 5398 5386 5373 5361 5349 5339 5330 5321 5311 5302 5294 5287 5282 5276 5270 5263 5258 5253 5248 5244 5241 5237 5232 5229 5226 5223 5221 5219 5217 5215 5213 5212
5548 5534 5519 5503 5489 5479 5465 5450 5437 5424 5413 5402 5392 5382 5372 5361 5350 5339 5328 5319 5310 5302 5294 5287 5282 5276 5269 5262 5257 5252 5248 5245 5242 5238 5233 5230 5227 5225 5223 5220 5218 5217 5216 5214
5538 5527 5514 5502 5492 5479 5463 5448 5436 5424 5413 5402 5391 5380 5369 5358 5347 5337 5327 5318 5309 5301 5293 5286 5280 5275 5269 5262 5257 5252 5248 5245 5241 5237 5233 5230 5227 5225 5223 5221 5220 5219 5217 5215
5525 5515 5503 5492 5483 5473 5461 5449 5438 5426 5416 5406 5394 5381 5369 5357 5345 5335 5326 5317 5309 5300 5293 5286 5280 5274 5269 5263 5257 5251 5247 5244 5240 5236 5233 5230 5227 5224 5223 5222 5221 5220 5218 5217